Tracking 18945 objects as of 21-Jan-2018
HD Live streaming from Space Station
objects crossing your sky now

COSMOS 1515

Track COSMOS 1515 now!
10-day predictions
COSMOS 1515 is classified as:


NORAD ID: 14551
Int'l Code: 1983-122A
Perigee: 517.1 km
Apogee: 524.8 km
Inclination: 82.5 °
Period: 94.9 minutes
Semi major axis: 6891 km
RCS: 7.718 m2 (large)
Launch date: December 15, 1983
Source: Commonwealth of Independent States (former USSR) (CIS)
Launch site: PLESETSK MISSILE AND SPACE COMPLEX (PKMTR)
aabbcc
Your satellite tracking list
Your tracking list is empty




NASA's NSSDC Master Catalog

Two Line Element Set (TLE):
1 14551U 83122A   18020.86813358  .00000446  00000-0  20759-4 0  9996
2 14551  82.5010 319.4975 0005577 257.1219 130.1036 15.17354838602842
Source of the keplerian elements: AFSPC